Retour au catalogue

COSMOS 798

ActifMilitaireLEO
NORAD 8614·PAYLOAD·🇷🇺 Russia

Lancé Jan 28, 1976 depuis Plesetsk Cosmodrome

Loading…

Prochains Passages (prochaines 24 heures)

TLE

FraisSource: Space-Track

Époque: Sep 14, 2026, 11:27 UTC

1 08614U 76008H   26257.47722484 -.00000029  00000-0 -10352-3 0  9997
2 08614  74.0520  80.4004 0047734  29.3473 356.5503 12.37761277287634

Suivez COSMOS 798 en temps réel avec AllMySat

Download on the App Store